Погода в Цильне

Россия / Ульяновская область     54°35′30″N   48°09′08″E
темп.,
°C
ветер,
м/с
пор.,
м/с
влажн.,
%
обл.,
%
осадки,
мм/ч
давл.,
гПа
погр.,
м
7 мая, пт
пт701:00+11ююз41171100 0.0 1016209
04:00+10ю41072100 0.0 1016182
07:00+11ююз51268100 0.0 1015295
10:00+15ю71155100 0.0 1015831
13:00+17ююз81044100 0.0 10151799
16:00+18ю7104597 0.0 10142178
19:00+15юз51057100 0.1 1014424
22:00+11сз3486100 0.5 1016331
8 мая, сб
сб801:00+9ссз3488100 0.3 1017271
04:00+9с2489100 0.6 1018245
07:00+9ссв228726 0.0 1018262
10:00+11вюв238176 0.0 1018543
13:00+13юв357365 0.0 1017734
16:00+15вюв356898 0.0 1015380
19:00+15юв486568 0.0 1014215
22:00+14ююв61465100 0.0 1013314
9 мая, вс
вс901:00+13ю51363100 0.0 1013391
04:00+11ю3774100 0.0 1013126
07:00+11юв3778100 0.1 1012162
10:00+16ююз5960100 0.1 1013605
13:00+18юз4654100 0.0 10131246
16:00+13з4692100 2.1 1015333
19:00+10ссз61089100 1.3 1016425
22:00+9с61093100 7.7 1018434
10 мая, пн
пн1001:00+8с5994100 4.3 1019426
04:00+7с61191100 6.0 1021461
07:00+7с61191100 1.2 1023546
10:00+7ссз61191100 3.0 1026637
13:00+8с5985100 1.6 1027623
16:00+11св477011 1.9 1028943
19:00+11св36744 0.0 1029269
22:00+8ссв34820 0.0 103065
11 мая, вт
вт1101:00+6ссв38850 0.0 1031140
04:00+5св238613 0.0 103228
07:00+7св368128 0.0 1033185
10:00+11всв47665 0.0 1033462
13:00+14всв46536 0.0 1033809
16:00+15св45507 0.0 1031821
19:00+13св4664100 0.0 1031169
22:00+11всв337086 0.0 103139